Weather History for KWLD - April, 2013

Change the Weather History Date:

Monday, April 1, 2013

  Actual Average Record
Temperature  
Mean Temperature 44 °F -  
Max Temperature 48 °F 63 °F 87 °F (2012)
Min Temperature 39 °F 41 °F 33 °F (2008)
Degree Days  
Heating Degree Days 22    
Moisture  
Dew Point 33 °F    
Average Humidity 69    
Maximum Humidity 82    
Minimum Humidity 53    
Precipitation  
Precipitation 0.09 in - - ()
Sea Level Pressure  
Sea Level Pressure 30.20 in    
Wind  
Wind Speed 12 mph (NE)    
Max Wind Speed 18 mph    
Max Gust Speed 25 mph    
Visibility 10 miles    
Events Rain    
Averages and records for this station are not official NWS values.
T = Trace of Precipitation, MM = Missing Value Source: NWS Daily Summary

Daily Weather History Graph

Daily Weather History Graph

Search for Another Location

Airport or City:

Trip Planner

Search our weather history database for the weather conditions in past years. The results will help you decide how hot, cold, wet, or windy it might be!

Date:

Astronomy

Apr. 01, 2013 Rise Set
Actual Time 7:13 AM CDT 7:50 PM CDT
Civil Twilight 6:47 AM CDT 8:17 PM CDT
Nautical Twilight 6:16 AM CDT 8:48 PM CDT
Astronomical Twilight 5:44 AM CDT 9:19 PM CDT
Moon 12:54 AM CDT (4/1) 11:07 AM CDT (4/1)
Length of Visible Light 13h 30m
Length of Day
12h 37m
Waning Gibbous, 67% of the Moon is Illuminated
Apr 1
Waning Gibbous
Apr 2
Last Quarter
Apr 10
New
Apr 18
First Quarter
Apr 25
Full

Hourly Weather History & Observations

Time (CDT) Temp. Windchill Dew Point Humidity Pressure Visibility Wind Dir Wind Speed Gust Speed Precip Events Conditions
12:54 AM 48.9 °F - 39.0 °F 69% 29.98 in 10.0 mi SE 4.6 mph - N/A   Clear
5:54 AM 46.0 °F 39.9 °F 37.0 °F 71% 30.09 in 10.0 mi NNE 13.8 mph 23.0 mph N/A   Clear
6:54 AM 43.0 °F 37.2 °F 34.0 °F 71% 30.13 in 10.0 mi NE 10.4 mph - N/A   Clear
8:54 AM 44.1 °F 37.1 °F 36.0 °F 73% 30.19 in 10.0 mi NE 15.0 mph 23.0 mph N/A   Clear
9:54 AM 44.1 °F 36.2 °F 37.0 °F 76% 30.22 in 10.0 mi NE 18.4 mph - N/A   Scattered Clouds
10:03 AM 44.6 °F 37.2 °F 37.4 °F 76% 30.21 in 10.0 mi NNE 17.3 mph 25.3 mph N/A   Mostly Cloudy
11:54 AM 43.0 °F 36.8 °F 35.1 °F 74% 30.26 in 10.0 mi NE 11.5 mph - N/A   Overcast
12:16 PM 42.8 °F 36.2 °F 35.6 °F 76% 30.27 in 8.0 mi NNE 12.7 mph - 0.01 in Rain Light Rain
12:54 PM 41.0 °F 34.7 °F 36.0 °F 82% 30.24 in 7.0 mi ENE 10.4 mph - 0.04 in Rain Light Rain
1:54 PM 41.0 °F 32.2 °F 36.0 °F 82% 30.22 in 8.0 mi NE 18.4 mph 23.0 mph 0.03 in Rain Light Rain
2:54 PM 42.1 °F 35.7 °F 33.1 °F 70% 30.25 in 10.0 mi NE 11.5 mph - 0.00 in   Overcast
3:54 PM 42.1 °F 34.9 °F 30.0 °F 62% 30.24 in 10.0 mi NNE 13.8 mph 23.0 mph N/A   Mostly Cloudy
4:54 PM 43.0 °F 35.7 °F 27.0 °F 53% 30.22 in 10.0 mi NE 15.0 mph 24.2 mph N/A   Mostly Cloudy
5:54 PM 42.1 °F 34.9 °F 26.1 °F 53% 30.20 in 10.0 mi NE 13.8 mph - N/A   Overcast
6:54 PM 39.9 °F 32.9 °F 28.0 °F 63% 30.22 in 10.0 mi NE 11.5 mph - 0.00 in   Overcast
7:54 PM 39.9 °F 32.9 °F 28.9 °F 65% 30.21 in 10.0 mi NNE 11.5 mph - N/A   Overcast
8:54 PM 41.0 °F 34.7 °F 28.0 °F 60% 30.22 in 10.0 mi NE 10.4 mph - N/A   Overcast
9:54 PM 41.0 °F 34.7 °F 28.0 °F 60% 30.23 in 10.0 mi NE 10.4 mph - N/A   Overcast
10:54 PM 39.9 °F 33.4 °F 30.0 °F 68% 30.24 in 10.0 mi NE 10.4 mph - 0.00 in   Overcast
11:54 PM 39.0 °F 31.8 °F 30.9 °F 73% 30.22 in 10.0 mi NE 11.5 mph - 0.02 in   Overcast